Location: Ammerl�gen
(47.2167°N, 9.6000°E)
Time: 18:32:50
(UTC+00:00)

RS-15 - Visible Passes

Search period start: 07 December 2021 00:00
Search period end: 17 December 2021 00:00
Orbit: 1883 x 2161 km, 64.8° (Epoch: 06 December)

Date Brightness Start Highest point End Pass type
(mag) Time Alt. Az. Time Alt. Az. Time Alt. Az.
07 Dec 9.1 00:59:27 32° E 00:59:27 32° E 01:06:51 10° NE visible
07 Dec 7.8 03:07:14 76° W 03:07:56 78° NW 03:20:11 10° NE visible
07 Dec 8.6 05:15:02 20° WNW 05:22:39 39° NNW 05:33:55 10° NE visible
08 Dec 9.5 00:25:07 23° ENE 00:25:07 23° ENE 00:30:14 10° NE visible
08 Dec 8.0 02:32:54 78° NE 02:32:54 78° NE 02:44:02 10° NE visible
08 Dec 8.5 04:40:40 30° WNW 04:45:54 43° NNW 04:57:25 10° NE visible
08 Dec 9.8 23:50:43 15° ENE 23:50:43 15° ENE 23:53:17 10° NE visible
09 Dec 8.3 01:58:29 59° ENE 01:58:29 59° ENE 02:07:52 10° NE visible
09 Dec 8.3 04:06:16 42° WNW 04:09:16 48° NNW 04:21:03 10° NE visible
09 Dec 8.9 06:14:53 10° WNW 06:25:32 34° N 06:36:26 10° ENE visible
10 Dec 8.8 01:24:02 43° ENE 01:24:02 43° ENE 01:31:41 10° NE visible
10 Dec 8.1 03:31:48 55° NW 03:32:44 56° NW 03:44:44 10° NE visible
10 Dec 8.9 05:39:35 14° WNW 05:48:37 34° N 05:59:32 10° ENE visible
11 Dec 9.2 00:49:32 31° ENE 00:49:32 31° ENE 00:55:24 10° NE visible
11 Dec 8.1 02:57:18 63° NNW 02:57:18 63° NNW 03:08:31 10° NE visible
11 Dec 8.8 05:05:04 22° WNW 05:11:42 36° NNW 05:22:46 10° NE visible
12 Dec 9.5 00:14:59 22° ENE 00:14:59 22° ENE 00:19:02 10° NE visible
12 Dec 8.3 02:22:45 60° NNE 02:22:45 60° NNE 02:32:20 10° NE visible
12 Dec 8.6 04:30:31 30° NW 04:34:52 38° NNW 04:46:07 10° NE visible
12 Dec 9.8 23:40:24 15° NE 23:40:24 15° NE 23:42:28 10° NE visible
13 Dec 8.6 01:48:10 49° NE 01:48:10 49° NE 01:56:11 10° NE visible
13 Dec 8.5 03:55:56 39° NW 03:58:06 42° NNW 04:09:36 10° NE visible
13 Dec 8.9 06:03:55 10° NW 06:14:42 35° N 06:25:42 10° ENE visible
14 Dec 9.0 01:13:34 38° NE 01:13:34 38° NE 01:20:00 10° NE visible
14 Dec 8.4 03:21:19 47° NNW 03:21:28 47° NNW 03:33:12 10° NE visible
14 Dec 8.9 05:29:05 15° NW 05:37:47 34° N 05:48:42 10° ENE visible
15 Dec 9.3 00:38:55 29° NE 00:38:55 29° NE 00:43:49 10° NE visible
15 Dec 8.4 02:46:41 51° N 02:46:41 51° N 02:56:54 10° NE visible
15 Dec 8.9 04:54:26 22° NW 05:00:52 34° N 05:11:47 10° ENE visible
16 Dec 9.6 00:04:16 21° NE 00:04:16 21° NE 00:07:34 10° NE visible
16 Dec 8.5 02:12:01 49° NNE 02:12:01 49° NNE 02:20:41 10° NE visible
16 Dec 8.8 04:19:47 29° NW 04:23:57 35° N 04:34:59 10° NE visible
16 Dec 9.9 23:29:35 15° NE 23:29:35 15° NE 23:31:13 10° NE visible
